Home   Weather   Bamberg   Past weeks

Flag for Germany Past Weather in Bamberg, Bavaria, Germany — Yesterday and Last 2 Weeks

Now
55 °F

Passing clouds.


Feels Like: 51 °F
Forecast: 38 / 47 °F
Wind: 18 mph from West

Location: Nuernberg

Current Time: Apr 25, 2017 at 12:43:56 pm

Latest Report: Apr 25, 2017 at 12:20 pm


Visibility: N/A

Pressure: 29.74 "Hg

Humidity: 47%

Dew Point: 36 °F

Location of BambergLocation

Past Weather in Bamberg — Graph

°F

Bamberg Temperature Yesterday

Maximum temperature yesterday: 59 °F (at 3:50 pm)
Minimum temperature yesterday: 28 °F (at 5:50 am)
Average temperature yesterday: 45 °F

High & Low Weather Summary for the Past Weeks

 TemperatureHumidityPressure
High72 °F (Apr 10, 12:20 pm)100% (Apr 17, 11:50 am)30.54 "Hg (Apr 17, 11:50 am)
Low27 °F (Apr 20, 5:20 am)29% (Apr 10, 2:20 pm)29.71 "Hg (Apr 25, 2:50 am)
Average45 °F67%30.13 "Hg
* Reported Apr 10 11:20 am — Apr 25 11:50 am, Bamberg, Weather by CustomWeather, © 2017

Note: Actual official high and low records may vary slightly from our data, if they occured in-between our weather recording intervals... More about our weather records

Advertising

Bamberg Weather History for the Previous 24 Hours

Scroll right to see more
 ConditionsComfort  
Time TempWeatherWind HumidityBarometerVisibility
11:50 am
Tue, Apr 25
55 °FPassing clouds.20 mph47%29.74 "HgN/A
11:20 am55 °FPartly sunny.17 mph44%29.74 "HgN/A
10:50 am55 °FBroken clouds.16 mph51%29.74 "HgN/A
10:20 am55 °FSunny.13 mph51%29.74 "Hg10 mi
9:50 am54 °FPassing clouds.9 mph51%29.71 "HgN/A
9:20 am52 °FSunny.9 mph58%29.71 "Hg10 mi
8:50 am50 °FSunny.7 mph58%29.74 "Hg10 mi
8:20 am48 °FSunny.8 mph62%29.71 "Hg10 mi
7:50 am46 °FSunny.2 mph66%29.71 "Hg10 mi
7:20 am43 °FSunny.No wind76%29.71 "Hg10 mi
6:50 am41 °FSunny.3 mph81%29.71 "Hg10 mi
5:50 am37 °FClear.5 mph87%29.71 "Hg10 mi
4:50 am39 °FClear.3 mph81%29.71 "Hg10 mi
4:20 am36 °FClear.3 mph81%29.71 "Hg10 mi
3:50 am39 °FClear.3 mph81%29.71 "Hg10 mi
3:20 am39 °FClear.6 mph81%29.71 "Hg10 mi
2:50 am41 °FClear.2 mph76%29.71 "Hg10 mi
2:20 am41 °FClear.5 mph76%29.74 "Hg10 mi
1:50 am41 °FClear.6 mph76%29.74 "Hg10 mi
1:23 am43 °FClear.8 mph71%29.74 "Hg10 mi
12:50 am43 °FClear.6 mph71%29.77 "Hg10 mi
12:20 am45 °FPassing clouds.7 mph66%29.77 "HgN/A
11:50 pm
Mon, Apr 24
46 °FClear.3 mph66%29.77 "Hg10 mi
11:31 pm43 °FClear.5 mph66%29.80 "Hg10 mi
11:20 pm45 °FClear.3 mph66%29.80 "Hg10 mi
10:50 pm46 °FClear.2 mph66%29.80 "Hg10 mi
10:20 pm45 °FClear.No wind66%29.83 "Hg10 mi
9:50 pm46 °FClear.No wind66%29.83 "Hg10 mi
9:20 pm48 °FClear.No wind58%29.83 "Hg10 mi
8:50 pm52 °FClear.No wind50%29.83 "Hg10 mi
8:20 pm55 °FSunny.2 mph44%29.83 "Hg10 mi
7:50 pm55 °FPassing clouds.3 mph44%29.83 "HgN/A
7:20 pm57 °FPassing clouds.6 mph41%29.86 "HgN/A
6:50 pm59 °FPassing clouds.6 mph36%29.86 "HgN/A
6:20 pm59 °FPassing clouds.7 mph34%29.86 "HgN/A
5:50 pm59 °FPassing clouds.6 mph36%29.89 "HgN/A
5:20 pm59 °FPassing clouds.13 mph34%29.89 "HgN/A
4:50 pm59 °FSunny.7 mph31%29.92 "Hg10 mi
4:20 pm59 °FPassing clouds.8 mph31%29.92 "HgN/A
3:50 pm59 °FPassing clouds.9 mph34%29.95 "HgN/A
3:20 pm57 °FSunny.7 mph33%29.95 "Hg10 mi
2:50 pm57 °FPassing clouds.8 mph33%29.98 "HgN/A
2:20 pm55 °FSunny.7 mph33%29.98 "Hg10 mi
1:50 pm55 °FPassing clouds.9 mph36%30.01 "HgN/A
1:20 pm54 °FSunny.6 mph38%30.01 "Hg10 mi
12:50 pm54 °FSunny.8 mph41%30.04 "Hg10 mi
12:20 pm52 °FPassing clouds.7 mph38%30.04 "HgN/A
Weather by CustomWeather, © 2017

See weather overviewHow to use our weather pages